{"data":{"norad_id":31121,"intl_designator":"2007-012E","name":"SAUDICOMSAT 6","alt_names":[],"object_type":"PAYLOAD","status":"ACTIVE","operator":null,"country":"SAUD","launch_date":"2007-04-17","launch_site_code":"TYMSC","launch_vehicle":null,"mission":null,"orbit_class":"UNKNOWN","rcs_meters":0.0661,"size_class":null,"mass_kg":null,"dimensions":null,"purposes":[],"wikipedia_slug":null,"has_3d_model":false,"image_url":null,"decayed_at":null,"tle_current":{"epoch":"2026-09-19T16:54:00.479808Z","epoch_age_seconds":87063,"freshness":"FRESH","line1":"1 31121U 07012E   26262.70417222  .00000407  00000+0  87288-4 0  9998","line2":"2 31121  98.4224 232.0370 0072423  33.4271 327.1471 14.62635293 34007","mean_motion":14.62635293,"eccentricity":0.0072423,"inclination_deg":98.4224,"raan_deg":232.037,"arg_perigee_deg":33.4271,"mean_anomaly_deg":327.1471,"bstar":8.7288e-5,"rev_number":3400,"period_min":98.452430820702,"perigee_km":633.52662309938,"apogee_km":735.82866811515,"semimajor_km":7062.8146456073,"source":"CELESTRAK","updated_at":"2026-09-20T09:00:13.651984Z"}}}